Regional Weather Roundup
Issued by NWS Northern Indiana

Home | Current Version | Previous Version | Graphics & Text | Print | Product List | Glossary On
Versions: 1 2 3 4 5 6 7 8 9 10 11 12 13 14 15 16 17 18 19 20 21 22 23 24 25 26 27 28 29 30 31 32 33 34 35 36 37 38 39 40 41 42 43 44 45 46 47 48 49 50
000
ASUS43 KIWX 142300
RWRIWX

KIWX WEATHER ROUNDUP
NATIONAL WEATHER SERVICE NORTHERN INDIANA
700 PM EDT SUN SEP 14 2014

NOTE: "FAIR" INDICATES FEW OR NO CLOUDS BELOW 12,000 FEET WITH NO
SIGNIFICANT WEATHER AND/OR OBSTRUCTIONS TO VISIBILITY.

* THESE STATIONS ARE NOT UNDER NWS QUALITY CONTROL. THEY ALSO MAY NOT
  REPORT WEATHER SUCH AS PRECIPITATION OR FOG.

INZ001>027-150000-
NORTHERN INDIANA

CITY           SKY/WX    TMP DP  RH WIND       PRES   REMARKS
GARY*          MOSUNNY   66  43  42 SW7       30.19F
VALPARAISO     SUNNY     63  45  51 W7        30.21S
SOUTH BEND     CLEAR     64  42  44 SW5       30.21F
GOSHEN         CLEAR     63  45  51 W8        30.21S
ANGOLA*        CLEAR     63  52  67 W5        30.21S
FORT WAYNE     PTCLDY    64  49  57 CALM      30.22R
PERU/GRISSOM   CLEAR     65  47  53 W5        30.21R

$$
INZ028>050-150000-
CENTRAL INDIANA

CITY           SKY/WX    TMP DP  RH WIND       PRES   REMARKS
LAFAYETTE      SUNNY     64  47  53 W5        30.20S
KOKOMO*        CLEAR     66  45  45 NW6       30.21R
MUNCIE*        PTCLDY    65  46  50 W5        30.20F
INDIANAPOLIS   PTCLDY    67  43  41 CALM      30.20S

$$
MIZ043>046-050>051-056>058-064>065-071>073-077>080-150000-
SOUTHWEST LOWER MICHIGAN

CITY           SKY/WX    TMP DP  RH WIND       PRES   REMARKS
BATTLE CREEK   CLEAR     61  42  49 W8        30.21S
BENTON HARBOR  CLEAR     60  44  55 SW6       30.20F
COLDWATER*     CLEAR     62  45  54 SW6       30.21R
HILLSDALE*     CLEAR     61  43  50 W3        30.21S
HOLLAND        CLEAR     60  45  57 SW7       30.20F
GRAND RAPIDS   PTCLDY    60  44  55 W13       30.20S
KALAMAZOO      CLEAR     61  42  49 SW6       30.21F
STURGIS*       CLEAR     61  45  55 W5        30.20F
THREE RIVERS*  FAIR      62  44  51 W3        30.21S

$$
OHZ001>008-015>018-024>025-150000-
NORTHWEST OHIO

CITY           SKY/WX    TMP DP  RH WIND       PRES   REMARKS
DEFIANCE       CLEAR     64  45  49 SW3       30.21S
FINDLAY        CLEAR     64  45  49 SW5       30.20F
TOLEDO EXPRESS CLEAR     63  43  48 CALM      30.21S
TOLEDO METCALF CLEAR     61  46  57 E8        30.22S
LIMA           CLEAR     64  49  57 CALM      30.21F

$$
&&


USA.gov is the U.S. government's official web portal to all federal, state and local government web resources and services.